Wind_Gust
9 8 7 7 4 7 7 5 11 10 7 9 9 9 23 5 11 17 23 10 14 9 7 8 13 15 15 22 24 17 13 10 6 17 15 16 12 23 24 25 22 21 23 22 18 19 19 20 22 23 21 21 21 22 21 22 22 21 21 20 21 19 18 18 17 17 17 17 17 18 18 18 17 17 17 18 17 17 16 18 19 19 19 19 20 19 19 18 18 18 18 17 17 17 17 17 14
9 8 8 7 8 4 7 4 11 5 6 8 15 14 24 18 11 12 10 12 9 9 11 19 26 32 30 26 23 22 19 13 7 15 19 22 19 22 22 24 23 25 20 20 19 17 17 20 22 22 21 22 21 22 22 22 21 21 21 21 20 19 18 18 18 17 17 17 17 18 18 18 18 18 17 17 16 16 16 17 19 19 19 19 19 19 18 17 17 17 17 16 16 15 15 14 13
7 11 13 10 5 6 8 5 12 6 7 11 17 19 14 17 4 12 16 13 5 14 17 18 21 21 19 16 15 12 4 9 20 17 24 20 24 17 21 21 20 21 20 19 22 19 17 20 22 22 22 22 22 22 22 22 21 20 21 21 20 19 18 17 17 16 16 17 17 18 18 18 17 17 17 16 15 15 16 16 18 18 19 18 17 17 16 16 15 15 15 15 14 14 14 13 12
5 5 5 7 8 5 6 7 6 12 12 14 16 19 21 18 8 10 17 14 9 10 9 16 21 10 28 23 20 20 17 12 10 20 29 20 22 22 22 21 19 20 19 21 20 19 16 23 22 22 22 22 22 22 22 21 21 20 20 20 20 19 17 16 15 16 17 17 17 17 17 17 17 18 18 16 14 14 14 14 17 18 17 16 16 15 14 13 13 13 13 13 13 13 13 11 11
5 6 4 4 4 7 7 11 10 11 17 14 15 19 20 16 10 13 13 13 7 10 18 20 25 15 20 20 9 14 11 14 15 11 22 18 23 22 22 21 21 21 19 19 19 17 18 23 21 21 21 22 22 22 21 21 20 20 20 20 20 19 17 17 16 16 17 16 15 15 17 17 17 18 18 18 16 16 16 15 15 16 16 15 15 14 15 12 11 11 12 13 13 12 11 10 11
7 7 5 6 9 8 11 9 10 16 15 12 12 16 17 17 14 18 19 7 9 6 11 12 21 12 18 10 10 14 22 20 15 14 24 19 27 24 21 20 21 21 19 18 17 16 18 21 21 21 21 22 22 21 20 20 20 19 19 19 19 18 16 16 15 17 17 16 15 15 17 17 18 17 18 18 17 16 16 15 13 14 14 14 14 14 13 11 10 10 11 12 13 11 9 9 10
8 8 6 4 12 7 11 8 12 11 16 12 19 16 20 15 8 8 13 6 6 10 14 19 27 24 23 12 18 13 8 16 19 19 18 24 23 22 20 22 23 22 20 20 17 18 20 21 21 21 21 22 21 21 20 19 20 19 19 20 18 18 17 17 15 16 16 14 14 14 16 17 18 18 17 18 17 17 16 15 15 14 14 14 14 14 13 13 13 13 12 13 11 9 7 7 9
6 5 6 7 9 8 8 11 13 12 15 13 15 20 22 22 8 11 17 4 7 8 12 18 16 25 9 9 17 13 17 14 25 27 29 25 21 20 21 23 24 21 20 19 18 19 23 21 21 20 21 21 22 21 20 19 18 18 19 19 19 18 19 18 16 13 13 15 16 16 17 18 19 19 18 18 17 16 16 15 14 14 14 13 14 14 13 13 13 12 11 10 8 7 6 7 8
6 8 7 8 8 13 7 11 18 15 18 20 24 25 23 27 8 12 16 9 5 9 14 21 20 21 11 18 16 8 20 25 27 27 26 24 21 19 23 23 26 23 20 19 19 19 18 21 20 20 21 21 20 20 19 19 18 18 19 19 18 18 18 18 16 14 13 12 14 15 17 18 19 18 18 17 17 16 15 14 14 14 14 13 13 13 13 12 12 11 10 9 7 7 6 6 8
8 10 7 13 8 8 9 13 10 15 24 25 27 27 25 30 15 11 18 22 9 8 7 11 18 24 20 21 18 9 18 25 26 23 22 21 19 19 22 24 25 24 20 20 19 21 20 23 20 19 19 20 20 19 17 17 18 18 18 19 16 17 17 16 14 14 14 14 14 15 16 16 17 17 17 17 16 15 15 14 13 13 13 14 13 12 12 11 11 11 9 8 7 7 7 7 8
11 13 7 7 7 10 11 11 13 15 17 20 20 26 27 24 16 16 12 17 12 9 18 26 24 27 20 12 11 8 14 22 27 23 18 18 21 24 25 23 24 24 24 21 20 20 20 20 25 20 19 18 18 17 16 16 16 16 16 16 16 17 16 15 15 14 15 15 15 14 15 15 16 16 15 16 16 15 14 13 13 13 13 13 12 12 11 11 10 10 9 6 6 5 6 7 8
9 10 8 8 10 11 10 12 15 20 18 18 26 22 15 23 18 22 17 15 8 16 17 18 23 27 18 20 12 13 12 16 22 20 17 21 25 25 24 23 23 22 24 23 21 20 19 18 18 23 20 20 18 16 16 16 16 17 16 16 16 15 15 14 14 14 15 14 14 15 14 15 15 15 14 14 14 14 14 13 13 12 12 12 11 11 11 11 9 8 7 6 5 5 5 7 8
15 6 6 10 9 7 14 15 18 19 17 18 18 22 23 24 22 21 19 13 6 10 12 17 30 20 12 13 17 10 14 11 17 18 21 24 23 25 24 25 24 23 22 22 24 21 19 17 18 17 18 22 18 17 17 18 16 16 16 16 16 15 16 15 15 15 15 15 15 14 14 14 14 14 14 13 13 12 13 12 12 12 11 11 10 10 10 11 9 7 6 6 5 5 6 6 7
14 12 8 12 7 10 12 12 13 12 19 19 11 19 21 16 14 22 12 7 6 6 8 35 25 25 18 19 13 13 14 13 18 20 24 23 24 26 25 25 24 24 22 22 23 22 20 18 18 17 17 15 15 17 18 19 17 16 16 16 17 16 17 16 15 14 14 15 15 14 14 14 13 13 13 12 12 10 10 11 12 12 11 10 10 10 10 9 9 7 5 4 4 3 5 5 7
15 9 9 11 11 6 8 16 12 15 21 11 15 9 10 8 8 7 11 15 16 17 21 15 30 27 24 23 16 17 18 17 21 24 27 26 26 26 24 25 24 24 24 24 19 20 21 19 18 16 15 15 14 14 12 18 19 18 18 17 18 17 16 17 16 16 17 15 15 14 14 14 13 13 12 12 10 9 10 10 9 11 11 10 10 9 8 8 8 8 5 4 3 4 4 7 6
15 9 11 9 12 8 16 15 13 13 23 9 15 11 6 4 7 5 5 13 14 18 15 16 10 12 26 18 27 26 22 21 24 28 31 29 28 26 27 25 24 25 25 22 19 19 21 21 18 17 17 16 13 13 14 14 18 20 19 19 19 16 17 17 18 18 18 17 16 15 14 13 13 11 14 11 12 10 9 7 8 8 9 10 9 9 9 8 7 7 6 3 4 4 5 6 7
9 11 10 11 14 8 13 12 8 16 16 11 13 11 9 7 3 12 12 20 24 17 20 14 10 12 26 14 27 28 24 23 27 30 29 27 28 26 26 26 24 20 24 21 17 17 22 23 21 17 17 16 16 16 15 15 17 20 17 19 19 18 18 20 19 19 17 15 15 14 12 10 9 10 11 8 13 9 9 8 10 10 9 9 9 8 8 7 6 7 6 5 4 5 5 6 6
9 16 13 12 12 13 14 20 16 6 14 12 14 9 6 4 7 12 21 22 24 22 22 21 25 24 25 27 27 27 26 28 28 28 27 25 25 26 25 24 19 21 20 21 15 18 19 18 18 18 19 18 18 18 17 15 15 16 13 16 16 17 17 17 17 13 13 9 13 13 10 11 9 8 8 10 8 9 10 11 12 12 11 10 9 8 7 5 5 7 6 6 6 6 6 4 6
13 11 13 17 12 21 16 16 13 11 15 14 18 12 6 6 4 10 17 18 24 25 18 22 27 24 25 25 25 25 25 25 24 22 23 23 24 24 22 24 23 24 22 21 16 20 22 21 19 21 21 21 20 16 16 14 14 13 14 14 15 15 14 15 12 14 10 10 9 10 10 7 8 8 7 10 9 10 9 14 15 15 13 12 9 7 6 6 6 6 7 6 5 6 5 5 6
12 9 13 17 9 15 20 21 12 14 19 19 21 14 11 10 12 7 12 15 25 26 26 17 26 24 24 23 22 23 24 26 25 25 24 25 25 26 27 29 25 18 20 23 24 19 20 21 22 20 20 20 19 17 15 14 13 13 14 14 14 14 15 15 14 13 12 11 11 9 8 6 7 8 11 17 14 9 7 8 12 15 14 12 11 6 6 6 6 6 7 7 5 6 5 6 7
11 18 15 14 12 20 26 18 18 14 13 14 15 11 13 15 13 8 13 20 17 21 24 29 27 28 27 24 24 23 25 27 27 27 30 30 27 24 25 24 28 29 23 20 18 21 22 20 19 19 19 20 17 17 17 16 14 14 14 15 15 15 15 15 14 13 12 13 11 9 8 5 7 7 3 3 3 7 7 7 5 3 4 7 9 6 6 6 6 4 5 6 5 6 7 9 7
9 17 15 14 16 15 21 17 14 19 18 14 12 11 12 11 13 15 12 13 13 19 16 29 31 32 32 29 24 25 27 28 28 28 26 26 23 20 16 15 13 15 18 20 19 18 18 19 18 16 17 16 18 19 19 18 17 16 16 17 16 15 15 13 11 12 10 10 8 8 7 7 6 6 5 4 4 6 5 5 3 2 3 4 6 8 7 7 8 7 7 7 7 7 8 9 8
20 12 9 17 22 22 18 20 17 15 14 10 7 8 11 12 13 10 19 10 15 20 23 22 26 26 25 26 28 27 28 29 29 29 28 26 22 21 19 19 19 16 15 15 15 15 18 16 14 16 18 15 15 15 15 16 16 14 15 15 16 15 11 12 11 9 8 6 5 6 9 8 7 8 6 5 5 5 5 5 5 6 5 6 5 6 7 7 9 9 8 8 7 7 9 9 10
15 21 7 13 17 21 16 19 11 13 17 20 10 13 10 11 9 9 18 14 23 23 23 23 23 23 24 26 21 29 29 28 26 27 29 23 22 21 19 17 13 11 13 15 17 16 16 14 15 16 15 16 17 16 16 14 13 14 14 13 13 13 13 11 10 8 6 7 5 6 9 9 9 9 8 7 7 6 8 8 4 5 4 7 5 7 7 7 8 9 8 8 8 8 9 10 10
17 21 12 14 11 12 13 17 14 9 10 14 9 12 14 9 7 7 12 18 23 24 23 25 24 22 19 21 21 26 27 27 28 27 20 19 17 17 14 16 14 14 16 15 16 14 13 12 10 14 14 13 14 14 14 11 10 10 10 11 11 12 11 10 8 7 7 6 5 4 8 9 7 8 8 8 7 7 6 8 8 5 3 4 5 7 8 8 7 9 9 9 8 9 9 10 9
16 15 14 15 19 16 11 11 12 7 7 5 5 12 14 15 10 11 16 18 19 24 23 23 22 22 21 20 22 25 26 27 27 24 22 16 18 19 15 15 15 16 17 17 16 13 11 11 12 11 11 13 11 10 10 9 8 7 6 8 7 7 7 8 7 7 6 6 6 5 6 8 9 9 8 6 8 9 5 6 6 6 6 6 5 6 8 9 9 9 10 9 9 9 9 11 8
10 18 17 18 20 17 14 13 9 11 10 9 10 8 10 14 11 11 11 21 22 24 22 19 22 23 19 19 22 22 25 25 25 22 17 15 13 19 15 12 14 15 16 17 15 13 12 11 11 10 8 7 7 8 7 7 6 6 5 6 6 7 7 8 6 6 6 6 7 5 5 7 8 7 7 7 6 8 8 7 8 7 8 7 6 6 4 8 8 8 10 11 9 9 10 9 9
14 13 13 15 14 14 14 8 13 4 8 9 9 8 6 12 11 18 13 21 26 26 21 20 18 20 20 22 22 19 20 20 22 22 22 17 16 16 15 17 14 17 18 17 14 13 14 11 11 8 8 8 7 7 7 7 8 7 6 7 8 8 8 7 7 7 8 8 6 6 6 7 8 7 7 7 8 8 8 8 9 10 10 8 8 7 5 4 5 6 6 5 6 7 9 8 8
13 14 18 10 13 25 14 17 8 7 9 8 6 9 12 11 11 16 22 20 23 25 22 21 19 19 19 22 21 19 19 18 17 19 17 15 14 14 16 12 17 16 11 15 14 13 13 12 13 9 9 7 8 9 8 7 7 8 9 8 7 7 7 7 7 8 9 8 7 7 7 7 8 9 8 8 8 8 8 9 9 10 10 8 7 7 5 4 5 7 9 8 9 9 7 7 6
9 10 9 9 13 10 12 8 10 7 9 12 12 15 13 17 13 17 22 22 22 23 23 22 20 18 21 21 19 19 17 17 16 17 15 14 12 12 14 10 12 12 15 13 13 12 11 10 11 11 10 10 9 8 9 9 7 6 6 6 7 7 7 9 9 8 8 8 8 8 9 9 9 10 10 8 7 7 8 8 8 9 9 8 7 7 8 6 7 7 9 8 10 9 8 7 7
15 8 7 8 5 13 11 15 10 13 10 13 12 13 12 16 16 18 22 24 26 24 23 23 22 19 19 19 19 18 14 14 16 15 15 14 12 12 14 11 13 13 15 13 12 11 11 11 11 11 11 9 9 8 8 8 5 6 6 6 7 8 8 8 7 8 8 8 8 8 8 8 7 8 8 9 8 7 7 8 9 9 7 6 8 8 8 6 7 8 7 8 10 10 8 8 8
12 13 14 9 6 10 10 9 14 21 10 12 16 12 15 15 17 19 22 24 24 26 21 24 22 20 19 19 18 17 14 12 13 12 12 14 11 14 14 13 14 16 14 13 13 11 12 10 10 10 9 10 8 8 8 9 8 6 6 7 7 8 9 10 10 10 10 8 9 8 7 8 8 8 8 7 8 7 8 9 9 7 7 7 7 7 7 8 8 7 7 6 8 11 9 10 8
10 14 9 10 5 10 11 11 14 19 14 8 18 16 12 21 19 21 21 25 28 27 24 24 23 22 22 20 18 16 16 13 12 11 12 13 12 14 14 13 15 16 15 15 14 13 12 12 12 10 10 10 9 8 8 7 8 8 7 8 8 8 8 10 10 9 9 10 10 9 8 9 9 8 9 8 8 9 9 9 7 9 8 8 8 8 8 8 7 9 8 7 5 8 7 9 5
12 8 14 10 9 10 18 13 13 19 16 10 14 15 13 12 10 23 22 30 29 26 25 25 25 22 21 22 20 17 15 15 13 12 13 13 15 16 15 15 15 14 14 13 12 13 13 11 11 10 10 10 10 10 9 8 7 7 7 7 6 7 6 5 4 8 9 9 10 10 10 10 10 10 10 10 10 10 8 8 6 7 8 8 8 9 9 8 8 8 9 7 6 5 8 16 12
12 9 10 14 9 9 13 21 11 19 23 16 11 16 18 17 16 12 25 30 28 27 26 25 25 23 22 22 20 17 15 15 13 12 14 16 16 14 15 15 15 14 13 13 13 12 11 11 11 10 10 10 11 9 7 7 7 5 4 5 4 6 5 3 1 2 8 9 10 10 11 11 10 9 10 9 10 9 8 7 7 7 7 8 8 8 8 7 6 7 9 7 10 12 10 11 13
15 10 12 11 12 17 21 24 15 23 20 22 9 23 25 22 19 11 22 28 29 25 21 19 20 21 22 22 19 17 16 14 12 13 14 14 14 16 15 14 14 14 14 15 14 12 11 10 9 9 9 10 9 8 8 8 8 9 9 6 5 6 5 3 2 5 4 7 8 10 11 10 8 9 9 9 9 9 8 9 8 7 7 8 8 9 9 7 7 6 7 10 10 12 16 15 10
15 15 13 16 18 19 18 22 14 28 24 22 21 18 19 22 22 12 25 20 26 28 22 23 22 21 22 20 18 18 16 16 12 14 14 16 17 17 15 15 16 15 15 14 14 13 12 13 11 11 10 10 10 11 10 11 8 7 5 9 9 8 8 7 7 7 8 7 6 10 10 10 9 10 10 9 9 9 8 7 7 7 8 9 9 9 7 8 8 8 8 14 13 12 10 10 9
22 17 10 10 18 19 21 22 20 25 22 17 23 15 17 22 16 9 20 16 28 30 25 23 23 22 21 23 20 18 17 13 13 14 15 15 17 15 14 15 16 18 14 14 14 12 12 10 10 10 9 8 8 8 7 8 6 8 8 9 6 8 7 7 8 7 8 8 8 8 9 9 9 9 9 9 9 9 8 8 8 8 8 8 8 6 5 7 7 8 8 8 9 12 15 15 13
20 19 15 16 16 17 18 20 24 25 23 21 23 18 18 19 12 10 25 25 29 29 31 31 31 25 23 22 23 22 19 18 14 14 14 16 16 15 14 14 13 14 14 13 12 12 12 9 7 7 7 7 7 6 7 6 4 3 4 6 7 6 6 8 9 8 9 9 7 7 8 9 10 10 9 10 10 9 8 7 8 8 7 8 8 8 6 8 8 8 8 9 8 7 8 10 16
19 13 13 18 14 14 17 12 27 23 30 19 21 19 20 11 7 21 18 29 21 25 27 26 31 32 27 25 26 26 20 21 17 16 16 14 14 14 13 13 13 13 13 13 12 11 9 8 5 6 7 6 6 6 6 5 4 3 3 6 4 4 3 4 4 4 6 5 7 8 7 9 10 10 9 8 8 7 9 10 9 8 9 8 10 10 9 10 9 8 8 9 7 9 11 10 12
19 17 15 17 17 22 22 12 29 25 25 13 16 8 13 5 9 15 23 24 26 26 28 24 19 21 20 19 19 20 23 20 20 15 14 15 16 16 16 14 15 15 12 11 10 9 9 9 7 8 7 6 5 5 6 5 4 3 3 4 4 5 5 5 3 5 4 7 6 6 10 8 9 9 8 8 8 9 8 9 10 10 9 9 9 10 11 12 11 10 10 9 11 12 10 11 9
22 19 17 18 20 17 20 9 28 23 19 10 16 15 19 9 13 21 24 32 26 24 29 25 23 21 20 22 21 17 15 13 18 17 16 16 17 16 16 16 15 14 14 11 10 10 9 8 7 7 6 6 6 4 5 5 5 6 3 2 4 4 8 6 8 9 8 8 11 7 7 8 8 8 7 8 9 8 9 10 9 10 10 11 11 12 11 10 11 12 13 12 13 11 12 9 13
17 26 14 22 22 20 22 12 8 16 30 17 11 20 15 7 17 19 21 30 24 23 29 26 24 22 19 20 21 20 19 17 16 17 17 17 16 17 15 15 14 14 11 11 11 10 9 9 7 8 7 6 5 5 5 5 4 2 4 4 5 6 6 8 6 7 9 9 7 8 10 8 8 9 8 8 8 8 9 10 11 12 12 12 12 11 12 13 13 13 12 13 14 12 10 14 14
30 14 12 16 16 21 23 15 12 16 11 14 10 19 15 12 9 21 26 31 27 23 23 22 21 19 19 18 21 19 19 19 21 19 17 15 15 15 14 11 12 11 9 10 9 8 10 9 9 8 7 6 5 4 5 3 3 2 2 3 4 5 5 6 6 7 4 4 5 6 6 6 6 7 9 9 10 11 11 10 10 10 11 12 13 14 15 14 13 12 12 14 13 13 14 17 15
21 9 16 16 18 21 16 13 14 17 16 14 10 13 17 13 14 19 29 27 25 26 25 22 20 19 19 20 20 19 19 18 18 19 18 17 17 17 17 17 14 15 14 14 12 11 11 11 11 10 11 9 9 9 9 8 5 3 3 5 7 7 4 5 4 4 5 2 3 3 3 5 5 6 7 8 10 10 9 10 9 11 10 12 12 12 12 12 14 14 13 13 14 14 15 15 16
14 12 14 18 13 11 9 15 12 10 27 19 17 12 21 11 19 22 18 28 26 27 25 23 21 22 20 20 18 18 18 18 18 18 18 17 17 17 17 17 16 13 12 13 12 13 11 11 11 11 10 7 7 8 8 8 8 6 7 5 7 8 8 8 5 5 6 3 3 5 6 7 7 7 7 7 11 8 10 10 12 13 14 12 11 12 12 14 16 15 15 14 14 16 15 17 20
8 17 19 15 12 9 9 13 14 7 17 26 18 15 20 22 24 28 26 29 32 25 21 21 20 19 18 17 18 18 19 19 19 18 17 15 15 17 18 18 14 13 13 14 13 12 10 10 8 10 8 8 7 7 8 8 7 7 6 6 6 7 7 7 9 10 9 8 5 5 7 8 7 8 8 9 8 9 10 9 9 10 11 10 11 12 14 14 17 15 14 13 14 17 16 17 16
11 22 24 10 16 3 7 9 5 17 19 17 14 18 17 29 22 16 13 20 40 37 31 29 25 20 20 17 18 19 18 19 19 19 17 16 16 17 17 17 14 13 13 14 12 11 13 11 9 10 10 9 8 8 8 7 6 7 6 7 7 7 8 8 9 9 9 8 6 7 7 5 6 6 6 9 12 13 9 11 10 11 12 13 12 13 12 13 14 14 14 15 18 16 16 18 17
18 12 10 18 14 16 19 12 16 17 23 12 8 13 13 10 10 12 13 30 22 31 38 32 28 23 21 20 19 18 18 18 18 17 16 15 16 16 16 14 13 12 13 12 12 12 13 11 11 11 12 10 10 7 7 6 7 8 8 9 8 8 8 8 7 9 8 8 8 9 9 8 8 7 8 9 9 9 11 12 11 13 13 12 11 11 13 14 17 16 18 15 16 19 19 16 16
18 22 16 18 20 18 17 11 12 8 14 9 16 12 14 6 7 15 17 20 25 23 22 24 25 25 22 20 19 18 18 17 16 16 16 15 15 15 15 14 13 11 12 13 12 12 10 10 10 12 9 9 9 8 10 11 11 9 9 10 9 9 9 8 7 7 9 7 8 9 9 9 9 8 9 10 11 10 9 11 12 14 13 11 10 12 14 13 14 15 14 16 16 18 15 17 17
21 17 17 16 17 22 17 15 22 18 15 18 13 23 17 13 7 11 16 23 22 22 23 22 23 22 20 20 20 19 18 15 16 17 16 16 15 14 15 13 12 12 12 13 14 12 11 10 10 10 10 9 9 10 11 11 12 10 9 10 11 10 10 9 9 8 9 10 10 9 10 10 9 10 10 11 10 10 10 10 9 10 11 11 10 11 14 14 14 15 15 17 16 15 18 19 18
13 18 14 13 23 17 11 17 14 14 15 20 12 14 5 13 8 15 15 22 25 24 24 24 23 20 20 21 20 17 17 16 16 17 16 15 15 13 13 11 11 10 10 11 12 11 10 9 8 9 9 7 8 10 10 10 10 11 11 10 10 8 8 7 8 9 10 8 9 9 10 10 10 11 12 11 12 9 9 9 9 10 10 10 11 12 13 14 13 14 15 16 18 16 18 18 17
19 14 28 23 11 14 7 5 6 11 12 11 9 14 14 13 13 15 16 18 20 21 22 23 23 20 18 18 17 17 17 16 14 16 16 14 12 12 11 11 11 11 10 10 8 7 6 6 7 9 8 9 9 8 9 9 10 9 10 8 8 7 8 7 7 8 9 10 10 10 9 11 11 11 12 10 11 11 10 9 10 11 10 11 10 12 12 13 13 17 17 16 18 16 16 18 18
20 32 22 8 8 12 17 15 9 11 16 13 6 16 17 18 18 14 13 17 19 18 21 21 20 19 19 17 17 17 18 16 15 15 14 12 11 13 13 13 12 12 10 8 6 3 3 5 8 7 8 8 10 8 7 6 7 6 5 5 6 7 9 8 8 9 9 10 11 11 11 12 13 13 12 12 12 13 12 11 10 10 9 9 11 11 12 13 13 15 15 17 17 15 16 15 16
18 22 10 25 19 21 12 17 14 15 17 14 8 12 17 20 19 23 20 21 17 18 21 21 21 20 20 18 18 17 16 16 15 14 13 12 11 12 13 11 10 10 9 8 6 5 7 7 7 6 6 6 5 5 3 3 2 3 4 4 5 8 10 9 8 9 8 8 9 10 11 11 12 12 12 13 13 13 14 14 12 11 9 9 10 11 11 11 13 14 14 15 14 13 16 17 16
17 5 19 15 12 14 17 26 13 23 10 12 10 18 15 14 14 25 28 28 27 23 21 20 21 18 18 19 19 18 15 15 15 13 13 13 10 9 9 10 12 10 9 5 5 7 9 8 9 7 6 6 7 8 5 5 3 5 7 7 7 7 8 8 8 8 9 9 9 9 9 10 12 12 12 13 13 13 14 15 15 13 12 10 9 10 11 11 11 13 14 15 16 14 16 18 16
21 14 15 23 21 11 13 11 16 15 19 16 17 15 14 8 13 23 17 19 21 22 23 21 20 18 18 16 17 17 16 16 14 12 12 10 10 10 9 11 10 7 5 5 6 7 6 8 8 9 9 6 6 7 6 7 6 7 7 6 6 6 8 8 8 10 10 9 8 9 12 13 13 14 15 16 15 16 16 15 15 13 12 11 10 10 10 10 11 12 13 13 14 14 16 16 15
15 18 15 13 18 11 21 15 14 12 17 18 21 16 9 6 11 18 26 21 20 18 19 19 18 17 16 16 17 17 17 14 13 11 10 12 13 11 9 10 9 9 8 7 7 9 8 7 8 7 6 7 7 11 9 8 8 7 6 6 7 7 9 10 10 10 10 10 10 12 14 16 16 17 17 18 19 19 18 17 14 13 12 12 12 10 10 9 11 12 13 14 15 15 16 16 14
Wind_Speed
4 4 4 4 1 0 1 1 1 2 2 2 3 2 4 0 1 5 6 7 0 1 3 4 6 2 1 2 11 8 4 5 2 7 3 1 3 12 13 14 14 13 15 12 10 10 12 16 17 18 17 17 17 17 17 18 17 16 15 15 15 14 13 13 14 14 14 14 14 15 14 14 14 14 14 15 14 13 13 14 15 15 15 15 15 15 14 14 13 12 11 11 9 9 8 8 10
2 4 4 3 2 1 1 0 2 1 2 0 7 3 5 0 3 5 6 7 4 0 2 9 11 14 15 13 8 6 8 5 1 4 5 6 11 10 13 15 16 17 13 11 11 10 10 13 18 18 17 18 17 17 18 17 17 16 16 15 14 14 13 14 14 14 14 14 14 14 15 15 14 14 14 14 13 13 13 14 15 15 15 15 15 14 13 13 12 11 10 9 8 6 5 8 10
3 6 6 6 2 2 1 1 1 2 3 5 7 8 1 3 2 5 10 8 1 3 6 10 7 4 2 2 5 4 1 5 11 9 7 8 13 6 11 12 12 15 14 10 10 10 9 13 17 18 18 18 18 18 18 17 16 16 16 15 14 14 14 14 13 13 14 14 14 15 14 14 14 14 14 13 12 13 13 13 15 15 15 14 13 12 11 11 11 10 9 8 7 5 3 7 9
3 2 2 2 0 2 1 2 2 6 5 6 5 8 3 5 5 7 11 10 5 7 2 1 4 4 2 10 3 7 5 3 5 10 7 4 6 11 12 14 13 12 11 9 10 10 9 15 18 18 18 18 18 18 17 17 16 16 16 15 14 13 13 13 13 13 14 14 14 14 14 14 13 14 14 13 11 12 12 12 14 14 13 13 12 11 11 10 10 9 9 8 6 4 2 6 9
3 1 1 1 2 0 1 3 4 5 8 4 6 8 4 4 6 6 8 9 5 7 3 5 4 4 3 7 0 1 3 9 9 7 7 8 12 13 14 14 13 13 11 10 10 10 10 19 17 17 17 18 18 18 17 17 16 16 16 15 13 13 13 13 13 13 14 13 12 12 14 14 14 15 15 14 13 13 13 13 12 13 12 12 11 10 9 8 8 8 7 6 5 4 3 7 8
1 1 0 1 0 1 2 1 3 6 7 4 4 6 6 4 4 7 12 5 4 4 7 2 4 3 4 3 1 4 8 5 6 8 11 9 15 16 15 12 13 12 12 9 10 9 10 17 17 17 17 18 17 17 16 16 16 15 15 15 14 13 13 13 12 14 14 13 12 13 14 14 14 14 15 14 13 13 13 12 11 11 11 11 11 10 9 8 8 8 8 8 6 3 4 6 8
1 3 1 1 2 1 4 3 6 5 8 4 4 6 10 5 5 5 8 3 0 6 1 7 11 8 6 1 5 3 5 7 7 8 10 13 15 15 14 13 14 14 12 9 9 10 13 17 17 17 18 18 17 17 16 16 16 15 15 16 15 14 14 14 12 13 12 11 11 12 13 14 14 15 14 15 14 13 13 12 12 11 11 11 10 10 10 9 9 8 8 7 5 3 3 5 7
0 1 1 1 1 1 2 4 6 4 6 6 5 9 13 11 5 4 12 3 3 3 2 10 5 8 1 3 4 7 11 9 16 18 19 15 14 13 14 14 15 13 12 11 10 10 17 17 17 17 17 17 17 16 16 15 15 14 15 16 15 15 15 14 12 10 10 11 12 12 14 14 15 15 14 14 14 13 13 12 11 11 11 11 11 10 10 9 7 7 7 6 5 3 3 5 6
1 1 1 3 1 0 1 4 6 3 5 6 9 11 14 12 4 6 11 4 4 3 5 7 6 10 2 9 6 5 10 17 18 19 18 16 14 13 11 14 15 12 12 11 10 10 11 16 16 17 17 17 16 16 16 15 14 14 15 15 15 14 15 14 12 10 10 10 11 12 13 14 15 15 14 14 14 13 12 11 11 11 11 11 11 11 10 9 8 7 6 6 4 3 3 4 6
1 1 1 2 3 3 3 6 2 6 6 10 10 12 12 9 8 6 9 14 6 5 4 1 1 9 8 10 6 5 8 17 18 16 15 14 13 13 13 14 16 16 12 11 10 10 10 18 16 16 16 17 16 16 14 14 15 15 15 15 12 14 14 12 11 11 11 11 11 12 13 13 14 14 14 13 13 12 12 11 10 10 10 11 10 10 9 9 8 6 6 5 4 3 4 5 5
0 1 2 1 1 3 5 6 5 8 9 5 7 10 13 13 10 8 6 11 8 4 4 10 8 11 8 5 4 4 10 15 19 15 13 12 15 14 13 13 14 15 14 13 11 10 10 11 19 16 16 15 15 14 13 13 14 13 13 14 13 14 13 11 11 11 12 12 12 11 12 12 13 12 12 13 13 12 11 11 10 10 10 10 9 9 9 9 7 6 5 4 3 3 4 4 5
1 0 0 2 3 5 5 3 5 10 8 5 9 10 7 12 10 8 11 9 4 10 9 6 7 12 9 4 4 7 8 11 15 13 11 14 14 14 14 11 13 13 15 12 12 10 11 11 11 16 17 16 15 13 12 13 12 13 13 13 13 13 12 11 11 12 11 11 11 12 12 12 12 11 11 11 11 11 11 11 10 10 9 9 9 8 9 8 6 5 4 3 3 3 3 4 4
2 1 1 2 3 3 4 3 9 8 5 8 8 8 8 9 11 14 13 10 5 7 3 3 16 3 5 4 5 6 10 8 12 13 14 15 13 13 13 13 13 13 12 12 12 12 11 10 10 10 12 18 14 14 14 14 13 13 13 14 14 13 13 13 12 13 12 11 11 11 12 11 11 10 10 10 10 10 10 10 10 10 9 8 8 8 8 7 6 4 4 2 2 2 3 3 4
3 5 4 3 0 2 2 4 4 3 7 10 5 11 11 6 9 15 8 4 3 1 1 14 12 12 8 8 6 7 8 9 13 14 14 15 13 14 14 12 13 12 12 11 11 10 9 9 8 8 10 9 8 12 14 14 13 13 14 14 14 13 14 13 13 12 12 11 11 11 11 11 10 10 9 9 9 8 8 9 9 9 9 8 8 7 7 6 6 4 3 2 1 1 2 2 4
6 2 1 1 2 0 3 3 5 3 9 6 6 5 5 2 3 5 8 10 3 2 9 5 8 6 9 13 7 8 10 12 15 16 17 17 17 15 13 11 12 12 11 10 9 9 8 8 8 7 7 7 8 6 5 10 15 14 15 14 15 14 13 14 13 13 14 12 12 12 11 11 10 10 9 9 8 7 8 8 7 9 9 8 8 7 6 6 5 4 2 1 1 2 3 2 2
4 2 2 1 4 4 6 5 2 3 8 5 9 5 3 3 1 2 2 8 3 3 1 5 1 2 9 7 17 16 15 15 16 19 19 20 16 12 12 10 8 7 7 7 6 7 8 8 7 7 7 7 5 5 6 6 13 16 15 15 15 13 14 14 14 15 15 14 13 12 12 9 9 8 10 7 9 7 7 4 5 7 7 8 7 7 6 6 5 3 3 1 2 3 3 3 3
1 2 2 2 7 4 5 3 3 3 5 5 8 4 4 2 2 5 4 7 11 1 4 4 2 4 11 5 18 19 16 16 19 21 19 15 12 9 7 6 5 6 7 9 9 8 9 8 8 7 7 7 7 7 6 6 10 16 13 15 16 15 14 16 15 15 14 12 11 11 10 6 5 4 6 4 8 4 5 4 5 5 5 5 6 6 6 5 4 4 3 2 2 3 4 4 5
1 3 4 6 5 5 6 4 1 2 5 7 8 3 4 2 4 3 9 12 11 9 10 8 17 13 13 16 18 17 17 19 19 19 17 13 11 8 8 7 8 10 8 7 8 9 9 8 9 8 7 8 8 6 6 6 7 11 9 10 10 11 13 13 11 7 9 5 10 8 5 5 5 3 3 5 1 2 4 5 5 5 4 4 3 3 5 4 3 4 3 3 3 4 5 3 3
4 2 4 9 5 9 2 1 4 4 9 10 12 9 0 0 3 1 7 3 13 12 7 13 17 16 16 17 17 17 17 17 16 16 16 14 12 13 10 9 8 9 9 9 8 11 10 10 10 11 10 10 10 8 6 7 8 7 8 8 7 9 9 9 6 7 5 5 4 5 4 3 3 2 1 2 2 4 2 4 5 5 4 4 4 2 2 3 3 3 3 3 4 4 3 3 3
5 4 6 8 5 7 4 4 5 5 7 11 14 8 3 2 2 1 6 7 14 13 9 9 16 17 16 15 15 15 16 18 16 17 15 14 13 12 10 10 8 8 8 8 11 10 11 11 12 11 12 11 9 7 6 6 6 6 6 6 6 6 6 6 7 7 5 4 4 3 2 2 3 2 4 6 5 2 1 2 4 6 6 6 5 2 0 1 3 3 4 4 3 3 3 3 3
2 4 5 6 5 7 8 4 6 6 5 7 10 7 7 8 3 2 9 7 3 8 15 18 18 19 18 17 16 15 16 18 17 17 16 12 8 7 10 9 10 8 7 3 2 5 7 8 8 8 7 7 7 6 6 6 6 7 7 7 6 6 6 6 5 3 3 4 3 3 3 1 3 4 1 1 1 3 2 1 0 0 0 0 2 2 1 1 1 0 1 1 2 2 4 4 3
1 5 7 7 5 5 5 3 5 4 7 3 5 5 6 6 4 7 8 8 5 10 8 17 21 22 22 19 16 16 18 17 17 17 16 14 12 9 3 3 3 5 6 8 9 8 4 1 2 3 5 6 6 5 6 6 7 7 7 6 6 4 4 3 2 2 1 2 3 4 3 3 3 4 3 3 1 3 3 3 2 1 0 1 1 2 1 2 2 2 2 2 2 2 3 3 3
5 6 5 6 9 9 3 3 4 2 6 6 2 5 3 4 2 2 3 4 7 3 7 10 15 16 17 17 18 18 18 17 16 15 14 13 12 9 6 5 8 8 7 8 6 4 5 6 5 4 5 6 5 2 4 4 4 1 1 1 3 2 2 2 2 2 1 2 3 4 5 4 4 4 4 3 4 3 4 2 2 2 2 2 1 3 3 3 3 3 3 3 3 2 3 3 4
7 8 5 8 10 10 9 7 7 5 7 10 4 3 5 4 5 3 6 3 8 14 13 14 15 15 15 16 15 20 19 18 15 13 14 16 14 13 10 9 6 5 7 8 6 5 6 6 4 4 5 5 4 4 3 2 2 1 0 1 2 2 3 3 2 2 1 1 1 3 4 5 5 4 4 4 4 3 3 1 1 1 2 3 3 3 3 3 3 4 3 4 3 3 3 4 4
6 9 8 8 5 6 8 7 7 6 7 10 6 4 9 3 0 2 4 7 14 16 15 15 15 15 13 14 15 18 18 15 13 10 7 8 9 7 5 6 6 7 9 9 7 6 6 6 5 5 4 4 3 4 4 4 3 2 2 3 3 3 2 2 3 2 2 0 1 1 4 5 4 4 4 4 3 3 3 3 2 2 2 2 3 4 4 4 4 4 4 4 4 4 4 5 4
5 9 7 9 8 6 6 5 4 4 3 2 0 5 9 0 5 6 6 10 13 16 16 15 14 14 14 12 15 17 16 15 12 11 11 10 9 9 7 7 7 9 8 9 8 7 5 4 5 6 5 5 4 5 4 4 3 3 2 3 3 3 3 3 3 4 3 3 3 2 3 5 5 5 4 3 3 4 3 2 3 3 3 3 2 3 4 4 5 5 4 4 4 4 4 5 4
3 5 11 12 14 10 5 6 6 4 5 3 4 2 5 4 7 3 1 10 15 16 15 12 14 16 13 12 14 14 15 13 12 10 10 9 8 9 8 7 8 7 8 9 8 7 5 5 4 3 4 4 4 5 4 5 4 4 3 4 4 4 4 4 4 4 4 4 4 3 3 4 4 4 4 4 3 3 2 2 4 3 4 4 4 3 2 4 5 4 4 4 4 5 5 5 4
5 6 5 7 8 6 5 4 5 0 2 6 5 5 2 7 4 9 8 7 16 18 14 13 12 13 12 15 14 12 11 10 11 13 14 11 9 9 9 9 8 8 10 11 8 6 6 5 5 3 3 4 4 4 4 5 5 5 4 4 5 4 4 3 4 4 5 5 4 4 3 4 3 3 3 4 4 4 4 4 4 4 5 4 4 4 3 3 3 3 3 2 3 3 4 4 4
6 6 5 7 8 8 6 6 5 2 3 5 4 1 1 2 0 10 15 10 13 17 14 13 12 11 13 14 13 11 11 10 10 10 11 9 9 8 10 7 9 9 5 8 8 7 7 6 5 4 4 3 4 4 4 4 4 5 5 5 4 4 4 4 4 5 5 5 4 4 3 3 3 4 4 5 5 4 4 4 4 5 5 5 3 3 3 3 3 4 4 2 2 2 3 4 3
4 2 4 4 3 4 8 4 4 4 3 6 4 3 5 5 5 7 12 11 12 15 13 13 11 11 13 13 11 10 9 9 8 9 8 8 7 7 8 7 8 7 7 5 6 7 5 4 4 4 4 4 3 3 3 3 3 3 4 4 3 4 4 5 5 5 4 3 3 2 3 3 4 4 4 4 4 4 4 5 5 5 5 4 4 3 4 3 3 5 6 3 3 3 4 5 4
3 4 1 2 0 3 4 4 5 6 4 7 5 4 6 6 9 6 9 13 16 13 13 12 11 12 12 11 11 10 7 8 9 9 8 7 6 5 8 7 8 8 6 6 7 6 6 5 5 4 4 3 3 3 3 3 2 2 3 4 4 5 5 5 4 4 3 3 3 4 3 4 4 4 3 4 4 4 4 4 5 5 4 4 4 4 4 3 4 5 4 5 5 4 4 4 4
1 4 5 2 3 4 6 4 3 5 2 7 4 5 7 9 9 9 11 13 16 14 12 12 12 12 12 10 10 10 8 7 8 7 7 8 7 7 8 9 10 10 9 8 6 6 6 4 5 5 4 3 3 2 1 2 2 2 2 4 4 3 2 2 2 2 3 4 4 4 4 4 3 4 3 3 4 4 4 4 4 4 4 3 4 3 4 4 4 4 4 4 4 6 4 5 4
1 5 5 3 3 4 3 3 4 8 3 1 9 5 4 6 6 10 14 14 15 15 12 11 14 14 12 11 10 9 10 8 7 7 8 8 6 6 7 8 8 10 9 9 8 7 6 5 6 5 6 4 3 2 2 2 3 3 3 2 1 1 1 1 1 1 3 4 4 4 3 3 3 3 3 3 3 3 3 3 3 3 3 4 4 4 4 4 4 4 4 4 3 4 4 5 3
4 0 4 5 4 2 2 5 2 4 5 2 4 5 7 6 1 13 9 14 14 16 13 12 13 11 11 11 11 10 9 9 8 8 8 7 7 7 7 8 8 8 8 8 6 7 6 5 5 5 4 3 3 4 4 4 3 2 2 1 0 1 1 1 2 4 4 4 3 4 3 3 3 4 4 3 3 3 2 3 3 3 3 4 3 3 4 2 3 4 5 3 2 0 2 5 6
4 2 2 5 1 3 5 3 4 3 4 7 2 6 11 9 2 7 15 13 16 16 15 14 14 12 12 11 11 10 9 9 8 8 10 10 10 8 8 9 8 7 6 7 6 5 5 4 4 5 5 5 4 4 4 2 1 1 0 0 0 1 1 1 0 1 4 3 4 3 3 4 4 4 4 4 4 4 3 3 3 3 3 3 3 2 4 3 3 3 5 3 2 5 3 3 0
6 5 5 3 4 4 3 4 5 4 5 8 5 10 11 10 4 7 12 14 15 16 13 10 10 10 10 10 10 9 9 9 7 8 9 9 8 9 8 8 8 8 7 7 7 6 5 4 3 3 4 5 4 3 3 3 2 2 1 1 1 2 2 2 2 2 1 3 3 4 4 4 4 4 4 3 3 3 3 3 3 2 3 3 4 5 5 4 4 3 3 4 2 4 1 2 2
5 4 5 7 6 5 4 6 4 4 2 8 12 10 6 10 7 9 17 11 10 14 13 12 12 11 10 10 10 10 10 9 7 8 8 10 11 9 8 8 9 9 8 8 8 7 6 6 6 6 5 5 5 6 4 3 2 1 0 0 1 1 1 1 3 3 3 3 3 5 5 5 4 4 3 3 4 4 3 2 2 2 3 3 4 5 4 4 3 3 2 2 3 3 4 5 4
7 5 4 6 4 8 8 6 4 4 5 7 11 9 9 12 7 6 12 11 13 14 13 13 14 11 11 13 13 11 10 7 8 8 9 10 10 10 8 8 10 11 8 7 8 7 6 5 6 5 5 4 4 3 2 2 1 2 2 2 1 2 2 3 4 4 4 4 3 4 5 5 5 5 4 3 3 3 2 2 3 4 4 4 5 4 3 3 3 2 3 2 3 4 6 6 6
8 7 6 3 7 4 6 4 3 4 6 10 9 10 11 13 5 6 16 15 11 14 18 19 17 14 13 13 15 14 12 11 9 8 8 9 11 10 9 8 8 8 8 7 6 6 5 5 4 4 3 4 3 2 3 2 2 1 1 2 3 2 2 3 3 4 3 4 4 4 4 4 5 4 4 3 3 3 3 3 5 5 5 5 5 5 3 4 3 3 4 4 3 2 4 3 5
7 5 4 8 5 3 6 3 3 5 6 7 10 12 11 5 1 4 11 16 11 9 11 16 19 20 17 16 16 15 13 13 11 10 10 9 9 9 8 8 8 8 7 6 6 6 3 3 3 3 3 2 2 1 2 1 1 1 1 3 1 1 1 1 2 3 4 3 4 4 3 3 4 4 3 3 3 3 4 5 5 5 6 5 5 4 4 4 3 3 3 4 3 3 3 5 5
9 8 5 5 7 8 6 4 3 3 13 6 6 2 5 1 4 5 1 9 13 10 11 7 5 10 12 12 12 13 15 13 12 10 9 8 9 9 9 9 9 8 7 6 6 4 4 4 4 4 4 3 3 3 3 2 2 2 2 2 2 2 2 2 2 3 2 3 3 3 6 3 4 4 3 3 3 4 4 5 6 6 5 5 4 4 4 5 5 5 5 5 6 6 5 3 4
9 10 10 11 9 6 1 2 4 2 6 4 9 2 6 3 0 12 9 9 10 10 13 9 10 12 13 14 13 11 9 8 12 11 10 9 9 10 10 10 10 8 7 6 5 5 5 4 4 4 4 3 3 2 2 2 1 1 1 1 1 1 3 3 3 5 5 4 6 4 3 3 3 4 3 3 4 4 5 6 5 5 5 4 4 5 5 5 5 6 6 6 6 6 6 5 5
7 9 8 12 11 3 1 4 2 2 6 6 5 9 2 3 8 11 12 14 14 9 11 11 11 11 11 12 12 12 11 11 10 11 11 10 9 11 10 9 8 8 7 7 6 5 5 5 4 5 4 3 3 2 2 2 1 0 1 1 2 2 2 4 3 4 4 4 4 3 4 3 3 4 4 3 4 5 6 5 5 5 5 5 5 6 6 8 7 6 5 5 6 5 5 7 8
11 3 5 8 7 5 4 4 4 7 3 7 1 6 6 4 2 5 7 17 17 14 13 12 10 11 10 11 12 12 11 12 12 12 11 10 9 10 9 7 7 7 6 6 5 4 6 5 5 4 4 4 3 2 3 2 2 1 1 1 0 1 3 3 4 3 1 1 2 3 2 3 2 3 4 3 2 3 4 3 4 5 5 5 5 6 8 7 6 5 4 6 6 7 8 8 8
4 4 7 7 5 5 6 6 7 5 3 6 2 1 5 1 2 2 17 13 17 19 17 13 12 11 10 12 12 12 12 12 12 11 11 11 11 11 11 10 8 9 8 7 6 6 7 7 7 7 7 5 5 5 5 5 3 2 3 3 4 3 2 2 2 2 3 2 1 2 1 2 3 3 1 0 2 2 3 5 6 5 5 5 5 6 7 5 6 7 7 7 8 7 6 7 7
8 5 5 5 3 3 6 7 6 3 1 6 6 4 6 2 6 7 4 15 13 14 14 13 12 12 12 11 11 12 11 11 11 12 11 10 10 11 11 11 11 8 7 7 7 7 7 6 7 7 6 5 4 5 5 5 5 4 5 4 4 5 5 5 4 3 4 2 2 3 3 3 4 4 2 4 4 5 5 6 7 6 6 7 5 5 5 4 7 8 8 7 7 8 7 9 10
1 5 5 2 2 4 4 5 4 3 3 9 11 7 9 3 8 11 10 12 14 13 8 9 10 10 11 11 11 10 11 12 11 11 11 10 10 11 12 12 9 8 7 8 8 7 6 6 5 7 4 4 4 4 6 6 5 4 4 4 4 5 4 4 5 5 5 5 4 3 3 4 3 4 4 4 3 5 6 5 5 5 5 6 6 6 7 8 8 8 7 7 8 10 9 8 9
7 4 7 3 5 1 2 2 2 5 6 10 8 8 11 11 7 9 4 4 20 18 15 15 14 14 12 11 10 11 12 12 12 11 11 10 10 11 11 11 9 8 8 9 7 7 8 6 6 7 7 6 5 5 5 4 4 4 4 5 5 4 5 5 5 5 5 3 4 3 3 1 3 3 3 4 5 5 5 5 6 6 6 5 5 6 4 7 7 6 6 8 10 10 9 9 9
10 6 4 9 2 3 4 1 4 6 7 5 4 8 3 2 3 3 7 7 14 19 20 19 17 16 13 11 11 11 11 12 11 10 10 9 10 10 10 9 9 8 8 8 8 7 8 7 5 7 8 7 6 4 4 4 5 5 5 5 4 4 5 5 4 5 5 5 5 5 5 5 4 3 4 4 6 6 6 6 6 6 6 7 7 7 8 8 9 8 7 8 9 11 10 9 8
10 10 6 7 4 5 5 2 1 1 6 5 3 8 2 0 1 8 5 11 12 9 10 12 16 17 14 13 11 11 10 11 10 10 9 9 9 9 9 9 8 7 8 8 7 7 6 6 6 8 6 5 4 5 6 7 7 5 4 5 4 4 4 3 4 4 5 4 4 5 5 5 5 4 5 5 6 6 5 6 6 7 7 7 5 7 8 8 8 8 8 8 9 10 9 8 8
10 4 8 7 6 3 4 3 7 7 7 3 1 7 2 5 0 5 5 10 10 9 10 12 12 12 12 12 12 12 11 10 9 10 10 10 9 9 9 8 8 7 7 7 6 5 6 6 6 7 7 6 6 7 6 6 4 4 4 4 4 4 4 4 4 4 4 5 6 5 5 5 5 6 6 7 6 6 6 6 6 6 7 6 4 6 7 7 8 8 8 10 9 8 9 9 10
4 4 7 6 10 7 3 6 6 5 2 1 6 2 2 2 2 5 8 8 9 11 11 13 12 11 12 12 12 10 10 9 9 11 10 10 10 9 8 7 7 6 7 6 5 6 6 5 5 6 6 5 5 4 4 3 3 3 3 5 4 4 4 3 4 4 4 3 4 4 5 5 5 5 5 6 7 6 6 6 5 6 6 6 7 7 8 8 8 8 8 8 9 7 9 10 10
5 6 10 9 6 7 2 1 0 4 6 2 0 5 3 1 3 7 7 8 6 9 11 12 12 13 11 10 10 10 10 9 9 10 10 9 8 8 7 7 7 7 7 6 4 4 4 4 4 6 5 4 3 3 2 2 3 3 3 3 3 4 4 4 3 4 5 5 4 4 4 5 5 5 6 5 7 7 6 6 6 6 6 6 6 7 7 8 8 8 8 9 9 9 9 10 8
5 10 9 4 5 6 5 3 1 1 6 1 1 4 8 7 1 2 4 7 7 2 9 11 10 11 11 9 10 10 10 10 10 10 9 8 7 8 8 8 8 8 7 6 4 2 2 3 5 5 4 3 2 2 2 2 2 2 2 3 3 3 2 3 3 3 4 4 6 6 6 7 7 7 6 6 7 8 8 7 6 6 5 6 7 7 7 8 8 8 9 9 9 7 7 7 7
10 10 5 6 3 7 2 4 4 3 4 1 0 5 4 4 5 11 10 10 8 1 4 9 9 9 9 10 11 10 10 9 9 9 8 7 7 7 8 8 6 6 6 5 4 4 4 5 4 4 3 1 1 2 2 1 1 2 2 1 2 2 2 3 3 4 4 4 6 6 7 7 7 7 7 7 8 8 8 9 8 7 5 5 6 7 6 6 7 8 8 8 8 7 7 8 7
1 3 9 4 5 3 4 6 4 5 2 4 3 9 3 3 2 14 14 15 14 13 12 8 8 8 9 9 9 10 9 9 8 8 8 8 7 5 5 6 8 7 6 4 4 5 6 4 4 2 1 2 4 4 3 3 2 3 2 3 3 3 3 4 4 5 5 6 5 5 6 6 7 6 7 6 6 7 8 9 9 8 7 6 6 6 6 6 6 6 7 7 8 8 9 9 8
3 2 2 2 1 2 4 1 4 4 5 4 5 5 3 2 3 9 8 10 9 8 11 9 8 8 9 8 8 8 8 7 7 7 7 7 6 5 5 7 7 5 4 3 4 4 3 3 3 2 3 2 4 3 4 4 3 3 3 4 4 4 6 5 6 6 6 6 5 5 5 4 5 5 6 7 7 7 7 8 9 8 7 7 6 6 5 5 6 7 7 7 7 7 8 8 7
7 7 6 5 4 4 7 6 2 3 6 4 6 4 3 2 2 9 12 10 11 10 12 10 10 10 9 8 8 9 7 6 7 6 6 7 6 6 6 7 6 6 5 5 5 5 3 3 1 1 3 5 5 7 6 4 3 3 4 4 5 5 6 6 6 6 6 6 6 5 5 5 5 6 5 6 6 6 7 8 8 8 7 7 7 6 6 5 6 7 8 7 7 8 9 9 8
Wind_Direction
325 346 324 328 346 14 42 9 22 309 64 228 260 299 255 74 249 304 308 325 38 2 347 23 28 348 190 177 128 110 48 119 187 133 213 212 92 110 107 112 118 116 122 127 125 123 123 122 121 119 118 115 115 113 107 105 105 106 106 107 109 107 106 105 106 104 104 102 98 94 94 94 95 98 98 99 98 98 100 102 97 93 93 93 90 88 85 83 81 80 82 83 89 101 99 97 93
350 346 339 335 330 43 337 113 106 339 38 355 249 272 256 303 335 297 317 313 331 129 64 73 68 72 73 103 118 84 33 23 96 114 85 98 91 87 111 122 126 121 120 121 122 122 124 123 122 120 119 118 116 112 108 107 108 110 111 111 110 109 108 111 110 107 104 103 99 96 97 99 99 99 101 100 99 98 95 98 99 97 96 93 93 93 90 86 85 82 83 84 86 92 99 100 94
10 4 354 16 24 86 255 45 257 180 167 228 261 236 36 323 284 301 287 268 136 140 102 99 112 83 115 34 24 43 210 74 83 78 91 116 97 98 103 102 104 110 114 117 119 123 123 125 122 119 118 119 116 112 112 111 111 113 114 113 110 110 110 112 110 108 107 104 102 101 103 105 103 105 105 105 104 105 106 103 100 97 93 91 90 91 96 98 92 89 86 85 85 78 65 78 79
42 48 77 31 358 17 74 27 117 144 195 204 268 267 228 246 247 245 265 259 215 191 197 56 37 309 133 66 102 83 85 97 63 116 119 117 104 116 105 103 103 103 107 115 121 124 124 126 122 119 119 118 117 115 114 114 115 116 117 115 113 114 113 111 112 112 111 108 105 105 107 109 109 110 107 107 103 99 97 94 91 89 86 84 85 86 84 91 98 102 100 94 86 73 12 50 59
38 320 136 70 113 350 106 202 179 139 222 184 212 267 248 212 235 265 264 266 248 155 134 139 94 359 60 109 276 69 166 100 112 97 94 89 114 113 110 108 108 105 108 114 117 119 121 123 121 119 119 119 118 117 116 116 118 120 121 121 121 121 120 118 117 116 116 116 114 116 116 116 114 112 106 100 99 102 100 94 95 93 94 92 88 86 84 85 95 100 98 97 98 77 18 34 46
29 46 341 99 173 197 43 318 263 222 221 181 218 254 260 220 217 229 257 277 298 141 135 75 141 172 38 347 22 122 127 123 113 65 108 121 117 116 114 111 105 102 107 107 117 117 119 119 118 119 119 119 118 119 118 119 119 123 128 129 128 127 126 124 122 121 122 121 120 124 124 121 119 114 113 108 108 106 102 99 95 97 98 98 94 93 97 98 98 96 101 100 93 73 28 29 39
340 23 4 20 340 60 172 199 229 231 258 193 234 256 266 261 239 297 298 291 295 58 320 115 118 108 81 81 27 16 347 109 87 114 111 125 119 116 116 109 105 105 109 108 113 115 119 119 118 119 120 120 120 120 121 122 123 128 134 136 135 132 127 120 119 124 120 120 121 125 128 124 122 120 117 116 113 108 104 100 96 96 94 95 95 93 92 92 88 87 85 92 91 72 32 30 38
187 98 270 110 239 84 247 217 242 190 269 213 233 253 265 263 265 274 265 177 235 119 156 139 159 96 230 5 116 354 44 56 101 108 114 119 118 115 113 112 109 113 116 115 116 120 120 120 120 120 121 122 122 124 126 128 130 135 142 144 141 137 129 121 120 113 115 121 122 126 124 125 126 123 121 121 118 113 111 108 104 101 101 100 100 97 95 94 90 91 92 95 97 77 40 36 40
4 89 306 76 264 342 318 237 246 235 267 273 264 248 259 266 269 279 287 282 340 114 168 159 163 92 209 59 53 53 69 96 106 112 116 119 119 120 117 118 116 117 117 118 117 118 120 122 123 123 123 125 127 130 135 137 139 144 148 148 142 133 128 124 120 117 116 115 120 121 121 123 125 125 127 126 122 119 114 109 108 107 107 107 107 108 104 102 101 96 94 92 91 77 55 47 44
18 114 254 158 133 229 249 280 262 243 237 244 249 263 265 272 267 233 262 283 241 142 189 76 9 116 125 91 91 34 99 108 109 106 115 120 118 116 115 116 116 119 119 118 118 121 125 127 126 126 127 130 134 139 143 146 149 151 149 143 132 129 126 119 119 120 115 115 120 129 128 129 130 132 132 129 125 122 115 111 110 108 106 108 107 108 107 101 99 93 91 91 80 63 50 51 46
333 348 165 141 199 224 235 267 263 285 259 279 268 256 255 256 252 250 231 243 229 143 140 114 62 114 98 76 60 90 111 114 113 120 123 114 114 116 111 111 114 118 122 124 129 129 129 132 132 133 135 137 142 146 151 152 153 150 141 131 124 126 122 123 126 126 124 127 130 125 127 130 133 135 134 132 127 122 119 115 112 108 105 107 111 107 105 102 95 90 85 85 82 61 48 44 39
21 222 106 165 196 180 234 213 262 265 284 282 274 256 244 238 234 237 239 243 214 145 153 158 162 119 77 106 104 117 113 105 112 118 109 109 112 111 109 108 109 117 125 130 132 135 138 139 139 140 141 144 147 149 148 151 147 142 131 124 125 127 131 137 139 135 133 133 131 129 128 132 134 132 130 128 128 128 125 119 114 108 106 106 109 112 108 107 104 100 91 76 68 49 41 35 31
161 209 104 101 228 163 229 238 256 272 299 270 255 270 250 246 223 215 226 211 218 150 190 191 138 108 110 117 130 113 101 111 112 105 107 110 108 104 99 104 111 119 126 136 139 142 143 141 143 144 146 147 146 149 153 151 147 138 131 129 134 140 148 151 148 146 141 138 133 134 134 135 131 128 129 131 133 133 130 125 119 114 111 110 108 108 111 111 112 109 105 79 45 43 30 19 15
158 178 125 224 183 197 195 231 266 309 283 263 260 267 275 251 223 190 165 162 340 299 201 141 125 106 90 111 128 126 122 125 106 104 106 105 103 99 102 109 117 126 136 141 139 138 137 139 140 143 144 145 151 153 155 154 145 137 134 140 146 154 157 156 152 147 144 140 138 143 144 139 135 133 131 135 136 135 133 131 127 122 120 116 112 111 111 117 120 112 108 103 22 8 13 0 21
204 184 112 171 286 8 238 208 217 198 264 286 267 275 316 280 126 139 146 94 16 101 100 71 142 101 196 152 156 152 144 126 106 106 102 99 96 98 104 115 128 142 141 137 134 134 133 136 139 141 147 155 158 155 151 156 147 139 142 149 155 158 159 156 150 148 148 145 150 152 153 151 147 142 140 141 140 136 142 136 135 132 125 123 118 113 120 124 122 131 134 136 286 320 328 334 5
192 137 154 190 244 206 264 222 224 228 268 281 276 299 329 326 56 64 8 128 146 342 127 155 323 180 165 169 150 147 141 118 110 107 104 99 94 93 107 118 117 102 100 108 117 128 138 144 148 151 157 161 156 153 158 154 153 147 148 154 156 159 161 158 157 155 154 157 159 159 159 159 159 155 156 154 152 152 146 138 134 135 131 127 123 125 121 134 140 150 157 207 275 287 305 316 319
244 161 238 198 259 199 251 204 160 248 248 280 287 8 27 280 336 50 50 84 99 24 73 14 48 61 125 104 129 131 126 113 112 110 106 103 100 104 101 98 119 130 145 146 152 156 152 151 157 159 165 163 162 165 159 149 154 151 152 157 164 166 163 164 163 160 161 164 164 165 163 158 159 165 165 167 168 155 157 151 147 134 132 131 129 129 130 132 150 150 174 216 262 277 293 304 305
190 217 184 233 215 222 226 212 175 268 314 296 326 307 52 336 350 155 70 57 87 74 68 64 58 68 95 108 116 123 123 115 116 115 108 104 115 125 137 162 158 164 152 142 156 161 154 161 168 165 165 171 171 167 160 153 158 155 162 168 171 166 165 165 164 163 165 163 166 167 164 165 164 165 162 173 138 162 163 162 163 148 140 126 115 106 122 132 151 168 196 233 251 272 292 315 320
181 208 162 232 205 239 219 234 289 335 288 299 308 303 130 142 267 203 86 135 99 72 50 85 83 83 93 105 117 122 121 116 107 107 111 121 137 151 161 166 177 155 155 157 170 166 168 169 173 172 174 175 174 170 163 160 157 158 171 176 166 164 167 166 165 167 164 164 161 164 167 161 146 146 161 176 141 169 163 178 177 166 154 147 120 108 123 141 159 185 214 238 262 275 299 321 323
219 170 221 238 214 247 236 214 249 235 280 308 301 292 357 325 308 27 124 159 114 119 118 87 106 114 114 118 119 121 117 105 107 113 117 135 154 148 158 159 168 175 163 174 168 171 172 176 178 176 175 175 169 173 163 155 152 163 178 173 162 162 173 171 174 172 163 162 164 155 148 143 134 127 194 207 181 141 161 190 195 182 178 174 156 120 152 187 188 200 225 235 275 297 313 317 322
258 167 215 231 230 251 260 243 255 277 281 281 273 314 340 335 339 64 149 89 81 156 154 147 144 135 132 131 129 125 112 111 116 122 130 135 135 163 165 161 173 157 153 131 186 182 184 180 172 179 172 165 173 171 162 161 162 172 183 178 168 172 177 173 177 156 158 162 147 151 159 149 133 149 136 17 76 120 112 105 342 98 36 23 111 106 111 229 154 239 270 288 284 297 311 312 323
281 207 211 221 256 252 265 265 272 282 287 317 321 8 299 297 35 29 141 131 218 184 200 145 141 140 138 136 132 123 113 114 124 133 140 136 146 179 147 99 89 120 152 167 176 176 184 169 203 178 166 171 180 173 163 168 170 185 185 182 167 174 165 146 107 91 163 153 154 160 149 130 136 138 138 120 97 131 149 169 178 149 134 166 95 122 179 226 208 213 210 247 262 273 287 298 298
243 275 266 237 231 240 265 228 246 269 286 292 340 280 281 24 1 356 53 164 190 79 114 119 122 125 128 129 130 117 116 123 134 138 131 131 158 176 171 159 159 156 172 177 171 168 164 164 178 173 169 176 177 140 141 167 170 194 283 167 145 121 77 91 91 94 120 169 169 163 140 138 139 152 159 155 161 156 171 157 166 179 202 197 188 168 198 228 221 215 210 213 229 251 262 272 280
215 249 249 255 237 234 242 255 258 243 270 286 243 297 342 19 33 339 63 350 95 104 112 112 114 117 124 126 123 121 126 134 142 142 145 153 158 176 170 166 166 144 167 172 171 166 171 165 171 159 166 174 152 138 139 88 62 59 321 211 70 104 107 107 107 120 152 163 158 159 142 145 150 160 179 177 183 161 174 133 99 160 190 204 199 196 203 222 233 230 224 219 210 222 236 246 249
214 246 245 254 241 228 243 249 261 271 251 249 323 345 287 98 281 73 51 91 105 110 115 113 117 121 123 128 119 123 129 140 145 144 137 146 161 150 136 150 155 161 170 173 167 165 172 168 152 155 153 138 112 113 115 90 82 70 32 43 69 111 74 111 142 148 127 269 255 155 141 144 152 164 177 189 169 191 177 170 198 221 189 195 185 210 199 218 225 222 226 223 218 217 217 245 246
215 227 241 248 251 237 216 223 233 225 239 222 62 292 295 274 109 54 122 107 109 114 114 123 125 125 133 121 113 125 137 143 140 138 142 150 154 141 155 164 164 175 178 164 161 168 166 159 159 153 144 135 125 105 100 95 92 85 72 84 116 117 161 173 165 156 156 181 217 195 156 156 167 174 176 172 174 204 195 191 204 235 223 209 184 210 219 218 228 227 231 226 223 223 225 238 233
212 215 220 229 236 239 241 229 247 222 221 224 179 254 277 310 97 93 84 125 120 116 119 126 130 134 134 116 123 130 136 142 141 132 124 132 141 151 158 162 174 169 159 168 170 168 160 154 143 135 132 133 114 111 114 116 116 117 115 129 141 156 181 182 167 163 164 191 206 201 172 166 167 171 167 168 182 193 199 198 225 235 241 233 218 214 203 220 236 229 230 235 225 218 229 239 233
284 274 300 279 275 270 264 259 251 169 241 220 166 208 251 313 93 150 154 161 131 125 130 132 136 137 126 125 130 140 132 137 136 137 138 143 153 161 163 166 169 163 166 171 172 155 150 154 140 135 121 125 118 119 126 138 143 140 140 156 171 174 164 169 175 175 185 193 202 198 189 181 165 170 171 171 177 182 197 204 219 227 238 230 228 229 202 215 217 237 247 246 257 255 247 240 228
247 238 266 278 279 269 243 236 249 167 260 189 157 87 291 327 177 170 153 168 139 128 132 136 139 128 120 124 130 135 133 142 142 138 149 152 156 162 158 164 155 159 174 165 157 152 157 156 146 136 125 122 126 139 156 153 149 148 159 179 171 156 160 162 178 193 191 195 200 193 191 178 168 172 189 192 192 189 189 199 208 224 234 232 220 226 225 222 257 264 253 237 291 288 271 259 238
280 287 203 268 295 271 255 229 202 192 237 170 126 224 268 263 238 165 150 161 134 127 135 140 136 126 124 132 133 121 131 139 143 141 146 152 155 154 142 140 147 152 150 148 140 146 142 137 131 124 132 132 145 148 152 164 163 158 164 154 161 153 169 176 192 193 195 195 191 195 189 193 190 191 188 201 193 188 187 199 211 222 225 230 222 208 210 193 232 261 268 288 264 265 266 260 232
305 268 112 182 81 270 267 185 163 165 212 160 135 190 265 248 252 174 166 155 138 137 141 142 132 127 129 132 124 118 124 134 134 136 139 136 126 123 124 127 143 143 136 136 141 126 127 129 143 134 143 140 150 163 168 174 149 150 145 160 172 176 185 185 186 178 184 192 191 202 202 207 213 214 205 202 207 193 189 198 214 218 210 211 214 210 197 192 193 227 250 269 278 265 253 256 236
290 351 276 312 156 273 292 295 172 188 260 151 128 218 215 233 242 169 175 162 141 140 148 140 132 129 132 123 115 115 112 104 110 112 121 120 121 126 129 131 140 143 143 136 120 121 124 137 141 133 137 136 151 156 160 162 160 157 173 190 191 188 182 188 179 176 185 186 190 196 198 207 220 230 229 212 218 203 195 205 218 209 195 197 210 209 197 201 197 208 219 212 251 270 268 261 228
313 180 261 255 146 237 337 288 171 203 190 173 164 217 266 285 229 174 167 163 144 141 148 142 133 134 131 126 120 117 114 106 101 108 112 116 120 123 125 128 138 142 141 140 137 132 130 140 136 137 144 148 149 151 160 183 174 193 199 221 178 150 192 194 201 183 179 185 194 195 199 208 224 235 239 236 230 218 203 210 225 217 194 191 208 212 209 205 193 205 218 214 202 262 282 253 219
284 21 208 216 190 225 225 292 301 209 186 233 210 195 226 232 119 161 172 158 147 143 152 143 139 138 132 128 125 126 123 121 119 119 120 122 122 118 118 128 129 130 133 128 131 137 138 137 136 132 130 144 154 172 183 185 192 201 243 257 119 204 267 191 200 188 198 199 192 207 202 211 224 228 231 229 238 236 208 200 208 213 207 200 207 214 236 209 198 201 229 218 160 76 40 16 330
218 269 262 284 268 175 203 162 262 174 216 213 204 222 237 241 198 157 168 165 153 152 155 153 146 139 137 130 129 123 120 119 124 124 126 128 124 121 121 124 122 121 121 120 120 114 119 126 129 142 146 158 169 175 180 173 154 172 29 17 337 316 320 320 128 178 203 194 210 217 208 217 225 223 224 223 224 233 221 205 200 206 200 209 186 200 248 225 200 209 225 215 127 65 57 98 239
203 188 205 212 208 240 204 237 260 168 197 226 181 220 232 237 208 147 170 162 160 156 146 131 131 131 129 127 123 121 119 116 123 122 126 126 124 125 123 123 123 125 127 128 125 130 130 130 133 137 158 169 166 168 163 157 133 134 181 324 340 301 304 313 320 269 245 209 218 215 221 220 225 223 224 224 226 230 227 226 225 205 207 203 203 204 219 211 197 189 216 213 178 92 37 239 148
212 202 205 234 228 252 246 232 221 194 174 216 218 227 231 240 207 160 161 158 154 145 145 143 144 140 133 126 121 120 120 127 132 127 127 126 125 124 124 125 125 126 131 135 134 139 147 154 151 162 174 176 174 173 173 153 139 136 356 222 249 270 271 261 277 275 266 234 211 207 215 222 223 227 224 214 225 234 225 234 244 246 218 217 221 227 224 219 200 190 162 218 219 132 231 238 237
232 231 212 250 223 235 232 232 217 202 165 250 228 216 235 239 222 152 153 143 164 155 148 144 148 141 135 128 125 124 125 119 122 123 125 123 124 126 126 125 131 131 138 136 138 143 151 152 160 165 171 183 186 168 141 144 177 175 153 165 178 239 263 273 272 279 248 236 214 201 206 213 217 219 218 208 220 214 228 227 235 241 221 226 230 234 230 224 214 198 148 217 244 196 224 220 209
238 217 230 246 256 260 291 271 259 228 182 241 222 210 233 239 221 127 157 163 170 167 159 156 150 144 136 132 131 133 134 130 124 125 128 128 128 130 130 131 131 132 136 138 140 142 149 155 155 153 164 171 183 166 142 173 232 161 129 161 168 259 263 243 240 248 247 234 230 218 207 205 212 220 219 211 210 211 211 212 228 231 227 216 220 228 230 242 229 218 196 190 205 234 236 223 211
229 236 212 226 237 224 277 305 252 216 188 231 213 203 236 257 41 126 174 151 166 174 158 154 154 150 148 143 140 138 134 131 133 134 135 136 134 131 127 123 124 125 128 131 141 148 141 129 131 140 151 145 153 161 146 181 137 142 97 128 151 136 216 228 243 292 268 269 257 239 237 221 219 225 217 216 219 212 202 213 223 222 227 219 215 221 226 237 240 243 217 215 185 210 210 238 215
235 213 203 220 236 231 197 252 309 250 228 217 79 124 291 341 191 63 48 137 127 107 101 103 82 102 114 118 124 132 136 140 136 129 126 128 123 119 119 121 123 125 130 136 145 145 140 135 138 135 130 127 123 123 115 88 63 46 35 26 38 12 8 11 343 299 274 238 243 245 236 213 222 229 226 217 213 210 208 216 219 226 229 230 224 233 231 228 224 224 220 217 206 217 228 208 224
238 236 199 221 230 240 276 332 16 320 272 262 146 108 243 297 90 137 139 109 101 123 127 134 130 127 127 127 126 124 122 125 128 126 121 118 114 109 108 114 120 126 130 138 129 123 122 123 115 99 92 88 93 83 80 77 65 120 66 52 354 1 315 305 274 247 251 238 226 223 242 223 217 224 224 225 217 212 218 220 223 229 234 238 229 232 239 241 235 225 219 215 223 216 229 210 226
206 237 180 222 231 227 278 305 39 307 234 243 149 168 240 335 124 150 141 125 125 127 132 138 135 133 130 128 129 131 129 121 113 112 115 115 115 108 108 116 123 121 118 117 115 115 111 111 101 104 104 96 91 89 96 90 63 79 158 167 170 200 239 269 263 273 260 267 245 237 232 237 226 218 231 220 218 225 226 227 228 232 236 233 229 230 237 236 235 231 223 219 229 224 219 237 223
227 198 194 213 216 204 234 249 206 239 252 308 203 138 143 81 252 128 120 134 137 136 140 139 138 134 129 128 129 129 127 125 124 122 120 115 107 103 98 85 85 88 84 81 89 97 104 103 98 81 64 56 34 48 45 57 97 88 36 339 245 219 205 247 287 301 270 250 282 258 262 253 262 240 231 235 276 273 264 260 245 239 236 236 231 230 237 242 248 250 227 225 234 228 226 233 241
226 206 206 220 175 176 203 211 233 228 245 282 271 186 84 69 212 140 128 126 140 143 145 144 140 134 128 130 129 124 121 121 120 117 114 114 110 105 98 91 86 81 80 81 83 84 82 85 85 80 71 62 57 57 56 34 39 13 12 4 352 336 319 301 314 330 2 352 300 313 281 257 250 246 212 43 274 274 280 270 258 248 242 241 231 239 245 253 254 250 241 230 229 227 223 235 246
239 211 209 223 150 153 199 222 216 280 207 250 236 182 109 100 176 157 170 138 155 151 145 144 143 139 135 128 120 114 110 107 106 107 107 104 103 99 101 96 83 83 86 85 79 77 73 75 78 81 73 62 55 52 49 39 34 31 41 25 28 4 1 1 22 0 337 339 325 304 284 276 267 270 231 185 204 226 235 240 248 246 245 246 246 254 267 261 248 252 251 243 237 236 225 223 227
186 195 230 220 106 181 235 208 166 71 216 245 224 197 128 162 217 176 168 177 151 144 143 135 132 121 119 118 114 116 116 112 110 108 105 103 104 102 94 90 92 84 81 78 72 69 67 69 71 76 79 79 64 57 52 45 37 42 45 42 38 19 3 8 11 11 3 2 353 307 277 262 265 258 263 252 213 197 223 229 237 240 237 235 233 223 218 232 239 237 250 260 247 234 231 227 231
212 210 202 227 300 8 256 272 81 188 238 248 229 192 144 137 236 237 246 178 157 151 147 149 140 136 129 123 119 116 115 112 111 110 106 105 98 92 92 90 85 86 80 74 70 71 70 64 64 62 46 41 28 36 58 54 54 43 43 51 38 22 23 17 8 353 346 343 337 327 315 296 281 276 271 268 266 241 236 240 234 232 229 231 227 235 238 246 246 233 232 240 257 257 243 233 229
206 211 148 168 247 151 256 188 211 198 200 253 187 163 135 138 200 262 294 179 172 157 156 153 144 136 131 128 123 116 114 113 112 110 107 100 97 94 92 90 85 73 77 74 71 67 65 62 66 71 55 48 48 52 47 31 35 37 49 55 51 36 31 16 1 343 344 336 334 336 336 329 320 313 289 277 269 252 237 240 245 244 246 235 228 226 233 236 253 252 233 232 236 245 244 240 232
194 202 162 148 161 184 212 236 178 277 278 254 221 164 148 343 121 346 279 168 162 146 136 127 134 133 132 126 119 115 112 112 110 108 103 99 97 96 93 91 88 85 78 77 74 70 67 59 50 56 55 49 40 49 52 53 50 51 51 53 45 36 27 8 349 350 333 323 343 339 335 326 315 297 292 279 267 261 246 237 232 238 243 243 217 216 228 226 223 234 236 239 236 236 239 233 241
204 174 142 170 146 159 192 182 176 197 206 232 326 162 247 131 312 6 7 131 129 120 113 113 112 113 115 115 110 110 112 110 113 107 106 106 101 100 101 100 99 94 83 76 74 80 71 58 58 63 56 40 46 57 64 65 54 47 43 46 40 28 10 357 346 337 333 349 350 344 339 341 338 322 311 291 282 265 256 251 240 237 243 240 228 220 224 235 237 239 247 249 242 233 236 233 229
206 167 92 130 206 132 147 199 149 194 174 231 5 57 358 61 328 21 40 82 113 126 120 119 117 119 120 118 118 119 116 115 114 110 106 105 109 110 110 110 106 100 91 79 68 62 62 49 55 55 58 55 64 63 68 82 74 57 46 43 29 20 8 4 352 348 345 342 333 338 330 333 330 320 313 315 304 287 267 255 250 247 244 236 223 225 233 235 238 237 240 240 244 234 237 234 233
212 139 203 208 141 117 116 25 182 100 73 14 263 131 86 183 31 28 33 25 75 117 121 120 122 127 122 119 121 121 119 117 114 112 112 112 110 108 109 110 104 98 97 90 84 103 105 91 82 77 75 68 68 87 93 88 74 68 43 44 30 22 23 10 343 330 333 329 332 331 330 319 320 326 321 321 314 305 291 273 266 260 252 241 237 230 235 238 235 233 236 245 250 245 240 242 238
144 198 211 116 149 120 129 197 315 51 156 215 163 171 150 148 217 133 86 94 341 67 120 119 125 126 120 125 123 122 120 117 113 109 111 113 113 112 108 106 108 114 115 117 127 118 105 84 85 92 80 68 19 36 30 41 54 50 43 46 40 46 31 351 329 329 333 340 339 341 342 343 340 328 326 324 325 317 304 287 275 265 252 248 246 245 236 234 230 232 239 248 253 251 248 244 237
173 206 131 161 162 221 253 115 197 163 164 198 32 161 176 201 149 147 164 150 142 165 117 123 129 127 120 123 117 111 111 110 111 112 112 111 110 105 106 110 111 101 98 107 118 113 92 78 98 114 117 123 96 43 17 354 4 42 67 76 64 33 11 348 341 338 345 350 347 347 347 340 337 341 341 338 335 333 326 314 294 278 269 255 247 248 245 240 233 237 238 247 254 248 247 247 239
74 98 160 173 129 186 137 197 172 125 168 119 156 173 223 201 174 176 163 170 161 151 147 135 133 129 122 121 119 118 117 115 112 106 101 103 101 102 115 116 108 110 108 108 95 77 75 91 91 89 64 32 30 28 25 42 12 53 36 23 10 15 1 3 349 352 354 4 3 358 349 352 344 336 340 335 334 332 328 327 314 288 280 273 263 254 248 246 242 243 247 248 251 249 247 246 246
152 155 268 198 167 223 122 133 136 169 158 153 129 188 252 263 179 174 145 152 149 147 134 126 127 122 114 110 113 110 106 104 107 110 110 106 108 111 102 90 88 99 121 95 72 86 109 96 84 79 79 20 21 27 45 49 50 23 37 27 13 7 5 4 15 27 32 26 14 3 346 342 332 335 338 336 332 329 327 323 319 307 287 284 274 266 256 253 253 255 255 253 253 248 250 252 247
167 168 196 169 126 123 168 251 1 106 110 166 142 206 272 253 310 172 154 146 148 142 131 126 129 122 112 114 118 117 112 122 127 118 107 109 113 102 87 76 75 84 76 89 115 113 99 93 123 54 33 31 57 61 66 62 52 34 26 13 6 14 19 30 41 37 35 25 17 359 344 344 338 335 340 335 329 329 326 322 319 318 306 294 284 270 263 258 261 261 261 259 260 253 252 254 248